カタログに戻る

FENGYUN 1C DEB

運用中PO
NORAD 31437·DEBRIS·🇨🇳 China

打ち上げ May 10, 1999 から Taiyuan Satellite Launch Center

Loading…

次のパス (今後24時間)

TLE

最新Source: Space-Track

元期: Sep 13, 2026, 05:20 UTC

1 31437U 99025BTZ 26256.22223985  .00003877  00000-0  10984-2 0  9996
2 31437  98.8590 353.7672 0015665 153.1720 207.0284 14.46054016  4596

AllMySatでFENGYUN 1C DEBをリアルタイム追跡

Download on the App Store